Index of /20260430/WXO-DD/model_rdps/10km/12/042
Name Last modified Size Description
Parent Directory -
20260430T12Z_MSC_RDPS_AbsoluteVorticity_IsbL-0250_RLatLon0.09_PT042H.grib2 2026-04-30 14:51 589K
20260430T12Z_MSC_RDPS_AbsoluteVorticity_IsbL-0500_RLatLon0.09_PT042H.grib2 2026-04-30 14:51 563K
20260430T12Z_MSC_RDPS_AbsoluteVorticity_IsbL-0700_RLatLon0.09_PT042H.grib2 2026-04-30 14:51 617K
20260430T12Z_MSC_RDPS_AbsoluteVorticity_IsbL-0850_RLatLon0.09_PT042H.grib2 2026-04-30 14:51 772K
20260430T12Z_MSC_RDPS_AirTemp_AGL-120m_RLatLon0.09_PT042H.grib2 2026-04-30 14:51 372K
20260430T12Z_MSC_RDPS_AirTemp_AGL-2m_RLatLon0.09_PT042H.grib2 2026-04-30 14:51 626K
20260430T12Z_MSC_RDPS_AirTemp_AGL-40m_RLatLon0.09_PT042H.grib2 2026-04-30 14:51 389K
20260430T12Z_MSC_RDPS_AirTemp_AGL-80m_RLatLon0.09_PT042H.grib2 2026-04-30 14:51 379K
20260430T12Z_MSC_RDPS_AirTemp_IsbL-0001_RLatLon0.09_PT042H.grib2 2026-04-30 14:51 293K
20260430T12Z_MSC_RDPS_AirTemp_IsbL-0005_RLatLon0.09_PT042H.grib2 2026-04-30 14:51 285K
20260430T12Z_MSC_RDPS_AirTemp_IsbL-0010_RLatLon0.09_PT042H.grib2 2026-04-30 14:51 295K
20260430T12Z_MSC_RDPS_AirTemp_IsbL-0020_RLatLon0.09_PT042H.grib2 2026-04-30 14:51 308K
20260430T12Z_MSC_RDPS_AirTemp_IsbL-0030_RLatLon0.09_PT042H.grib2 2026-04-30 14:51 331K
20260430T12Z_MSC_RDPS_AirTemp_IsbL-0050_RLatLon0.09_PT042H.grib2 2026-04-30 14:51 309K
20260430T12Z_MSC_RDPS_AirTemp_IsbL-0100_RLatLon0.09_PT042H.grib2 2026-04-30 14:51 389K
20260430T12Z_MSC_RDPS_AirTemp_IsbL-0150_RLatLon0.09_PT042H.grib2 2026-04-30 14:51 415K
20260430T12Z_MSC_RDPS_AirTemp_IsbL-0175_RLatLon0.09_PT042H.grib2 2026-04-30 14:51 407K
20260430T12Z_MSC_RDPS_AirTemp_IsbL-0200_RLatLon0.09_PT042H.grib2 2026-04-30 14:51 411K
20260430T12Z_MSC_RDPS_AirTemp_IsbL-0225_RLatLon0.09_PT042H.grib2 2026-04-30 14:51 407K
20260430T12Z_MSC_RDPS_AirTemp_IsbL-0250_RLatLon0.09_PT042H.grib2 2026-04-30 14:51 412K
20260430T12Z_MSC_RDPS_AirTemp_IsbL-0275_RLatLon0.09_PT042H.grib2 2026-04-30 14:51 395K
20260430T12Z_MSC_RDPS_AirTemp_IsbL-0300_RLatLon0.09_PT042H.grib2 2026-04-30 14:51 402K
20260430T12Z_MSC_RDPS_AirTemp_IsbL-0350_RLatLon0.09_PT042H.grib2 2026-04-30 14:51 419K
20260430T12Z_MSC_RDPS_AirTemp_IsbL-0400_RLatLon0.09_PT042H.grib2 2026-04-30 14:51 421K
20260430T12Z_MSC_RDPS_AirTemp_IsbL-0450_RLatLon0.09_PT042H.grib2 2026-04-30 14:51 395K
20260430T12Z_MSC_RDPS_AirTemp_IsbL-0500_RLatLon0.09_PT042H.grib2 2026-04-30 14:51 405K
20260430T12Z_MSC_RDPS_AirTemp_IsbL-0550_RLatLon0.09_PT042H.grib2 2026-04-30 14:51 423K
20260430T12Z_MSC_RDPS_AirTemp_IsbL-0600_RLatLon0.09_PT042H.grib2 2026-04-30 14:51 440K
20260430T12Z_MSC_RDPS_AirTemp_IsbL-0650_RLatLon0.09_PT042H.grib2 2026-04-30 14:51 453K
20260430T12Z_MSC_RDPS_AirTemp_IsbL-0700_RLatLon0.09_PT042H.grib2 2026-04-30 14:51 479K
20260430T12Z_MSC_RDPS_AirTemp_IsbL-0750_RLatLon0.09_PT042H.grib2 2026-04-30 14:51 406K
20260430T12Z_MSC_RDPS_AirTemp_IsbL-0800_RLatLon0.09_PT042H.grib2 2026-04-30 14:51 449K
20260430T12Z_MSC_RDPS_AirTemp_IsbL-0850_RLatLon0.09_PT042H.grib2 2026-04-30 14:51 496K
20260430T12Z_MSC_RDPS_AirTemp_IsbL-0875_RLatLon0.09_PT042H.grib2 2026-04-30 14:51 513K
20260430T12Z_MSC_RDPS_AirTemp_IsbL-0900_RLatLon0.09_PT042H.grib2 2026-04-30 14:51 521K
20260430T12Z_MSC_RDPS_AirTemp_IsbL-0925_RLatLon0.09_PT042H.grib2 2026-04-30 14:51 517K
20260430T12Z_MSC_RDPS_AirTemp_IsbL-0950_RLatLon0.09_PT042H.grib2 2026-04-30 14:51 521K
20260430T12Z_MSC_RDPS_AirTemp_IsbL-0970_RLatLon0.09_PT042H.grib2 2026-04-30 14:51 516K
20260430T12Z_MSC_RDPS_AirTemp_IsbL-0985_RLatLon0.09_PT042H.grib2 2026-04-30 14:51 505K
20260430T12Z_MSC_RDPS_AirTemp_IsbL-1000_RLatLon0.09_PT042H.grib2 2026-04-30 14:51 488K
20260430T12Z_MSC_RDPS_AirTemp_IsbL-1015_RLatLon0.09_PT042H.grib2 2026-04-30 14:51 480K
20260430T12Z_MSC_RDPS_Albedo_Sfc_RLatLon0.09_PT042H.grib2 2026-04-30 14:51 157K
20260430T12Z_MSC_RDPS_CAPE_Sfc_RLatLon0.09_PT042H.grib2 2026-04-30 14:51 1.6M
20260430T12Z_MSC_RDPS_CIN_Sfc_RLatLon0.09_PT042H.grib2 2026-04-30 14:51 1.1M
20260430T12Z_MSC_RDPS_CloudWater_EAtm_RLatLon0.09_PT042H.grib2 2026-04-30 14:51 220K
20260430T12Z_MSC_RDPS_ConvectivePrecip-Accum_Sfc_RLatLon0.09_PT042H.grib2 2026-04-30 14:51 1.0M
20260430T12Z_MSC_RDPS_DewPointDepression_AGL-2m_RLatLon0.09_PT042H.grib2 2026-04-30 14:51 392K
20260430T12Z_MSC_RDPS_DewPointDepression_IsbL-0001_RLatLon0.09_PT042H.grib2 2026-04-30 14:51 193
20260430T12Z_MSC_RDPS_DewPointDepression_IsbL-0005_RLatLon0.09_PT042H.grib2 2026-04-30 14:51 193
20260430T12Z_MSC_RDPS_DewPointDepression_IsbL-0010_RLatLon0.09_PT042H.grib2 2026-04-30 14:51 193
20260430T12Z_MSC_RDPS_DewPointDepression_IsbL-0020_RLatLon0.09_PT042H.grib2 2026-04-30 14:51 193
20260430T12Z_MSC_RDPS_DewPointDepression_IsbL-0030_RLatLon0.09_PT042H.grib2 2026-04-30 14:51 193
20260430T12Z_MSC_RDPS_DewPointDepression_IsbL-0050_RLatLon0.09_PT042H.grib2 2026-04-30 14:51 77K
20260430T12Z_MSC_RDPS_DewPointDepression_IsbL-0100_RLatLon0.09_PT042H.grib2 2026-04-30 14:51 125K
20260430T12Z_MSC_RDPS_DewPointDepression_IsbL-0150_RLatLon0.09_PT042H.grib2 2026-04-30 14:51 149K
20260430T12Z_MSC_RDPS_DewPointDepression_IsbL-0175_RLatLon0.09_PT042H.grib2 2026-04-30 14:51 183K
20260430T12Z_MSC_RDPS_DewPointDepression_IsbL-0200_RLatLon0.09_PT042H.grib2 2026-04-30 14:51 218K
20260430T12Z_MSC_RDPS_DewPointDepression_IsbL-0225_RLatLon0.09_PT042H.grib2 2026-04-30 14:51 253K
20260430T12Z_MSC_RDPS_DewPointDepression_IsbL-0250_RLatLon0.09_PT042H.grib2 2026-04-30 14:51 294K
20260430T12Z_MSC_RDPS_DewPointDepression_IsbL-0275_RLatLon0.09_PT042H.grib2 2026-04-30 14:51 302K
20260430T12Z_MSC_RDPS_DewPointDepression_IsbL-0300_RLatLon0.09_PT042H.grib2 2026-04-30 14:51 318K
20260430T12Z_MSC_RDPS_DewPointDepression_IsbL-0350_RLatLon0.09_PT042H.grib2 2026-04-30 14:51 324K
20260430T12Z_MSC_RDPS_DewPointDepression_IsbL-0400_RLatLon0.09_PT042H.grib2 2026-04-30 14:51 336K
20260430T12Z_MSC_RDPS_DewPointDepression_IsbL-0450_RLatLon0.09_PT042H.grib2 2026-04-30 14:51 345K
20260430T12Z_MSC_RDPS_DewPointDepression_IsbL-0500_RLatLon0.09_PT042H.grib2 2026-04-30 14:51 354K
20260430T12Z_MSC_RDPS_DewPointDepression_IsbL-0550_RLatLon0.09_PT042H.grib2 2026-04-30 14:51 363K
20260430T12Z_MSC_RDPS_DewPointDepression_IsbL-0600_RLatLon0.09_PT042H.grib2 2026-04-30 14:51 375K
20260430T12Z_MSC_RDPS_DewPointDepression_IsbL-0650_RLatLon0.09_PT042H.grib2 2026-04-30 14:51 379K
20260430T12Z_MSC_RDPS_DewPointDepression_IsbL-0700_RLatLon0.09_PT042H.grib2 2026-04-30 14:51 387K
20260430T12Z_MSC_RDPS_DewPointDepression_IsbL-0750_RLatLon0.09_PT042H.grib2 2026-04-30 14:51 405K
20260430T12Z_MSC_RDPS_DewPointDepression_IsbL-0800_RLatLon0.09_PT042H.grib2 2026-04-30 14:51 439K
20260430T12Z_MSC_RDPS_DewPointDepression_IsbL-0850_RLatLon0.09_PT042H.grib2 2026-04-30 14:51 467K
20260430T12Z_MSC_RDPS_DewPointDepression_IsbL-0875_RLatLon0.09_PT042H.grib2 2026-04-30 14:51 468K
20260430T12Z_MSC_RDPS_DewPointDepression_IsbL-0900_RLatLon0.09_PT042H.grib2 2026-04-30 14:51 458K
20260430T12Z_MSC_RDPS_DewPointDepression_IsbL-0925_RLatLon0.09_PT042H.grib2 2026-04-30 14:51 446K
20260430T12Z_MSC_RDPS_DewPointDepression_IsbL-0950_RLatLon0.09_PT042H.grib2 2026-04-30 14:51 441K
20260430T12Z_MSC_RDPS_DewPointDepression_IsbL-0970_RLatLon0.09_PT042H.grib2 2026-04-30 14:51 433K
20260430T12Z_MSC_RDPS_DewPointDepression_IsbL-0985_RLatLon0.09_PT042H.grib2 2026-04-30 14:51 426K
20260430T12Z_MSC_RDPS_DewPointDepression_IsbL-1000_RLatLon0.09_PT042H.grib2 2026-04-30 14:51 419K
20260430T12Z_MSC_RDPS_DewPointDepression_IsbL-1015_RLatLon0.09_PT042H.grib2 2026-04-30 14:51 409K
20260430T12Z_MSC_RDPS_DewPoint_AGL-2m_RLatLon0.09_PT042H.grib2 2026-04-30 14:51 388K
20260430T12Z_MSC_RDPS_DownwardLongwaveRadiationFlux-Accum_Sfc_RLatLon0.09_PT042H.grib2 2026-04-30 14:51 388K
20260430T12Z_MSC_RDPS_DownwardShortwaveRadiationFlux-Accum_NTAtm_RLatLon0.09_PT042H.grib2 2026-04-30 14:51 143K
20260430T12Z_MSC_RDPS_DownwardShortwaveRadiationFlux-Accum_Sfc_RLatLon0.09_PT042H.grib2 2026-04-30 14:51 544K
20260430T12Z_MSC_RDPS_FreezingRain-Accum12h_Sfc_RLatLon0.09_PT042H.grib2 2026-04-30 14:51 62K
20260430T12Z_MSC_RDPS_FreezingRain-Accum1h_Sfc_RLatLon0.09_PT042H.grib2 2026-04-30 14:51 39K
20260430T12Z_MSC_RDPS_FreezingRain-Accum24h_Sfc_RLatLon0.09_PT042H.grib2 2026-04-30 14:51 108K
20260430T12Z_MSC_RDPS_FreezingRain-Accum3h_Sfc_RLatLon0.09_PT042H.grib2 2026-04-30 14:51 46K
20260430T12Z_MSC_RDPS_FreezingRain-Accum6h_Sfc_RLatLon0.09_PT042H.grib2 2026-04-30 14:51 55K
20260430T12Z_MSC_RDPS_FreezingRain-Accum_Sfc_RLatLon0.09_PT042H.grib2 2026-04-30 14:51 156K
20260430T12Z_MSC_RDPS_GeopotentialHeight_IsbL-0001_RLatLon0.09_PT042H.grib2 2026-04-30 14:51 306K
20260430T12Z_MSC_RDPS_GeopotentialHeight_IsbL-0005_RLatLon0.09_PT042H.grib2 2026-04-30 14:51 299K
20260430T12Z_MSC_RDPS_GeopotentialHeight_IsbL-0010_RLatLon0.09_PT042H.grib2 2026-04-30 14:51 301K
20260430T12Z_MSC_RDPS_GeopotentialHeight_IsbL-0020_RLatLon0.09_PT042H.grib2 2026-04-30 14:51 395K
20260430T12Z_MSC_RDPS_GeopotentialHeight_IsbL-0030_RLatLon0.09_PT042H.grib2 2026-04-30 14:51 303K
20260430T12Z_MSC_RDPS_GeopotentialHeight_IsbL-0050_RLatLon0.09_PT042H.grib2 2026-04-30 14:51 304K
20260430T12Z_MSC_RDPS_GeopotentialHeight_IsbL-0100_RLatLon0.09_PT042H.grib2 2026-04-30 14:51 281K
20260430T12Z_MSC_RDPS_GeopotentialHeight_IsbL-0150_RLatLon0.09_PT042H.grib2 2026-04-30 14:51 226K
20260430T12Z_MSC_RDPS_GeopotentialHeight_IsbL-0175_RLatLon0.09_PT042H.grib2 2026-04-30 14:51 229K
20260430T12Z_MSC_RDPS_GeopotentialHeight_IsbL-0200_RLatLon0.09_PT042H.grib2 2026-04-30 14:51 262K
20260430T12Z_MSC_RDPS_GeopotentialHeight_IsbL-0225_RLatLon0.09_PT042H.grib2 2026-04-30 14:51 263K
20260430T12Z_MSC_RDPS_GeopotentialHeight_IsbL-0250_RLatLon0.09_PT042H.grib2 2026-04-30 14:51 264K
20260430T12Z_MSC_RDPS_GeopotentialHeight_IsbL-0275_RLatLon0.09_PT042H.grib2 2026-04-30 14:51 263K
20260430T12Z_MSC_RDPS_GeopotentialHeight_IsbL-0300_RLatLon0.09_PT042H.grib2 2026-04-30 14:51 263K
20260430T12Z_MSC_RDPS_GeopotentialHeight_IsbL-0350_RLatLon0.09_PT042H.grib2 2026-04-30 14:51 228K
20260430T12Z_MSC_RDPS_GeopotentialHeight_IsbL-0400_RLatLon0.09_PT042H.grib2 2026-04-30 14:51 225K
20260430T12Z_MSC_RDPS_GeopotentialHeight_IsbL-0450_RLatLon0.09_PT042H.grib2 2026-04-30 14:51 293K
20260430T12Z_MSC_RDPS_GeopotentialHeight_IsbL-0500_RLatLon0.09_PT042H.grib2 2026-04-30 14:51 289K
20260430T12Z_MSC_RDPS_GeopotentialHeight_IsbL-0550_RLatLon0.09_PT042H.grib2 2026-04-30 14:51 285K
20260430T12Z_MSC_RDPS_GeopotentialHeight_IsbL-0600_RLatLon0.09_PT042H.grib2 2026-04-30 14:51 280K
20260430T12Z_MSC_RDPS_GeopotentialHeight_IsbL-0650_RLatLon0.09_PT042H.grib2 2026-04-30 14:51 251K
20260430T12Z_MSC_RDPS_GeopotentialHeight_IsbL-0700_RLatLon0.09_PT042H.grib2 2026-04-30 14:51 251K
20260430T12Z_MSC_RDPS_GeopotentialHeight_IsbL-0750_RLatLon0.09_PT042H.grib2 2026-04-30 14:51 336K
20260430T12Z_MSC_RDPS_GeopotentialHeight_IsbL-0800_RLatLon0.09_PT042H.grib2 2026-04-30 14:51 344K
20260430T12Z_MSC_RDPS_GeopotentialHeight_IsbL-0850_RLatLon0.09_PT042H.grib2 2026-04-30 14:51 354K
20260430T12Z_MSC_RDPS_GeopotentialHeight_IsbL-0875_RLatLon0.09_PT042H.grib2 2026-04-30 14:51 355K
20260430T12Z_MSC_RDPS_GeopotentialHeight_IsbL-0900_RLatLon0.09_PT042H.grib2 2026-04-30 14:51 360K
20260430T12Z_MSC_RDPS_GeopotentialHeight_IsbL-0925_RLatLon0.09_PT042H.grib2 2026-04-30 14:51 364K
20260430T12Z_MSC_RDPS_GeopotentialHeight_IsbL-0950_RLatLon0.09_PT042H.grib2 2026-04-30 14:51 368K
20260430T12Z_MSC_RDPS_GeopotentialHeight_IsbL-0970_RLatLon0.09_PT042H.grib2 2026-04-30 14:51 372K
20260430T12Z_MSC_RDPS_GeopotentialHeight_IsbL-0985_RLatLon0.09_PT042H.grib2 2026-04-30 14:51 380K
20260430T12Z_MSC_RDPS_GeopotentialHeight_IsbL-1000_RLatLon0.09_PT042H.grib2 2026-04-30 14:51 392K
20260430T12Z_MSC_RDPS_GeopotentialHeight_IsbL-1015_RLatLon0.09_PT042H.grib2 2026-04-30 14:51 405K
20260430T12Z_MSC_RDPS_Humidex_Sfc_RLatLon0.09_PT042H.grib2 2026-04-30 14:51 2.4M
20260430T12Z_MSC_RDPS_IcePellets-Accum12h_Sfc_RLatLon0.09_PT042H.grib2 2026-04-30 14:51 7.5K
20260430T12Z_MSC_RDPS_IcePellets-Accum1h_Sfc_RLatLon0.09_PT042H.grib2 2026-04-30 14:51 3.6K
20260430T12Z_MSC_RDPS_IcePellets-Accum24h_Sfc_RLatLon0.09_PT042H.grib2 2026-04-30 14:51 13K
20260430T12Z_MSC_RDPS_IcePellets-Accum3h_Sfc_RLatLon0.09_PT042H.grib2 2026-04-30 14:51 3.7K
20260430T12Z_MSC_RDPS_IcePellets-Accum6h_Sfc_RLatLon0.09_PT042H.grib2 2026-04-30 14:51 5.6K
20260430T12Z_MSC_RDPS_IcePellets-Accum_Sfc_RLatLon0.09_PT042H.grib2 2026-04-30 14:51 18K
20260430T12Z_MSC_RDPS_KIndex_Sfc_RLatLon0.09_PT042H.grib2 2026-04-30 14:51 2.4M
20260430T12Z_MSC_RDPS_LatentHeatNetFlux_Sfc_RLatLon0.09_PT042H.grib2 2026-04-30 14:51 312K
20260430T12Z_MSC_RDPS_LiftedIndex-MU-VT_IsbL-0500_RLatLon0.09_PT042H.grib2 2026-04-30 14:51 2.4M
20260430T12Z_MSC_RDPS_NetLongwaveRadiationFlux-Accum_Sfc_RLatLon0.09_PT042H.grib2 2026-04-30 14:51 525K
20260430T12Z_MSC_RDPS_NetShortwaveRadiationFlux-Accum_Sfc_RLatLon0.09_PT042H.grib2 2026-04-30 14:51 545K
20260430T12Z_MSC_RDPS_PlanetaryBoundaryLayerHeight_Sfc_RLatLon0.09_PT042H.grib2 2026-04-30 14:51 1.1M
20260430T12Z_MSC_RDPS_Precip-Accum12h_Sfc_RLatLon0.09_PT042H.grib2 2026-04-30 14:51 1.6M
20260430T12Z_MSC_RDPS_Precip-Accum1h_Sfc_RLatLon0.09_PT042H.grib2 2026-04-30 14:51 1.2M
20260430T12Z_MSC_RDPS_Precip-Accum24h_Sfc_RLatLon0.09_PT042H.grib2 2026-04-30 14:51 1.8M
20260430T12Z_MSC_RDPS_Precip-Accum3h_Sfc_RLatLon0.09_PT042H.grib2 2026-04-30 14:51 1.3M
20260430T12Z_MSC_RDPS_Precip-Accum6h_Sfc_RLatLon0.09_PT042H.grib2 2026-04-30 14:51 1.4M
20260430T12Z_MSC_RDPS_Precip-Accum_Sfc_RLatLon0.09_PT042H.grib2 2026-04-30 14:51 1.9M
20260430T12Z_MSC_RDPS_PrecipRate_Sfc_RLatLon0.09_PT042H.grib2 2026-04-30 14:51 166K
20260430T12Z_MSC_RDPS_PrecipType-Instant_Sfc_RLatLon0.09_PT042H.grib2 2026-04-30 14:51 590K
20260430T12Z_MSC_RDPS_Pressure-Trend3h_Sfc_RLatLon0.09_PT042H.grib2 2026-04-30 14:51 1.2M
20260430T12Z_MSC_RDPS_Pressure_MSL_RLatLon0.09_PT042H.grib2 2026-04-30 14:51 323K
20260430T12Z_MSC_RDPS_Pressure_PVU-1.5_RLatLon0.09_PT042H.grib2 2026-04-30 14:51 2.5M
20260430T12Z_MSC_RDPS_Pressure_PVU-1_RLatLon0.09_PT042H.grib2 2026-04-30 14:51 2.4M
20260430T12Z_MSC_RDPS_Pressure_PVU-2_RLatLon0.09_PT042H.grib2 2026-04-30 14:51 2.4M
20260430T12Z_MSC_RDPS_Pressure_Sfc_RLatLon0.09_PT042H.grib2 2026-04-30 14:51 498K
20260430T12Z_MSC_RDPS_RadiativeTemp_Sfc_RLatLon0.09_PT042H.grib2 2026-04-30 14:51 304K
20260430T12Z_MSC_RDPS_Rain-Accum12h_Sfc_RLatLon0.09_PT042H.grib2 2026-04-30 14:51 1.1M
20260430T12Z_MSC_RDPS_Rain-Accum1h_Sfc_RLatLon0.09_PT042H.grib2 2026-04-30 14:51 601K
20260430T12Z_MSC_RDPS_Rain-Accum24h_Sfc_RLatLon0.09_PT042H.grib2 2026-04-30 14:51 1.2M
20260430T12Z_MSC_RDPS_Rain-Accum3h_Sfc_RLatLon0.09_PT042H.grib2 2026-04-30 14:51 669K
20260430T12Z_MSC_RDPS_Rain-Accum6h_Sfc_RLatLon0.09_PT042H.grib2 2026-04-30 14:51 941K
20260430T12Z_MSC_RDPS_Rain-Accum_Sfc_RLatLon0.09_PT042H.grib2 2026-04-30 14:51 1.5M
20260430T12Z_MSC_RDPS_RelativeHumidity_AGL-2m_RLatLon0.09_PT042H.grib2 2026-04-30 14:51 1.0M
20260430T12Z_MSC_RDPS_RelativeHumidity_IsbL-0010_RLatLon0.09_PT042H.grib2 2026-04-30 14:51 628K
20260430T12Z_MSC_RDPS_RelativeHumidity_IsbL-0020_RLatLon0.09_PT042H.grib2 2026-04-30 14:51 673K
20260430T12Z_MSC_RDPS_RelativeHumidity_IsbL-0030_RLatLon0.09_PT042H.grib2 2026-04-30 14:51 603K
20260430T12Z_MSC_RDPS_RelativeHumidity_IsbL-0050_RLatLon0.09_PT042H.grib2 2026-04-30 14:51 308K
20260430T12Z_MSC_RDPS_RelativeHumidity_IsbL-0100_RLatLon0.09_PT042H.grib2 2026-04-30 14:51 275K
20260430T12Z_MSC_RDPS_RelativeHumidity_IsbL-0150_RLatLon0.09_PT042H.grib2 2026-04-30 14:51 400K
20260430T12Z_MSC_RDPS_RelativeHumidity_IsbL-0175_RLatLon0.09_PT042H.grib2 2026-04-30 14:51 465K
20260430T12Z_MSC_RDPS_RelativeHumidity_IsbL-0200_RLatLon0.09_PT042H.grib2 2026-04-30 14:51 550K
20260430T12Z_MSC_RDPS_RelativeHumidity_IsbL-0225_RLatLon0.09_PT042H.grib2 2026-04-30 14:51 613K
20260430T12Z_MSC_RDPS_RelativeHumidity_IsbL-0250_RLatLon0.09_PT042H.grib2 2026-04-30 14:51 680K
20260430T12Z_MSC_RDPS_RelativeHumidity_IsbL-0275_RLatLon0.09_PT042H.grib2 2026-04-30 14:51 702K
20260430T12Z_MSC_RDPS_RelativeHumidity_IsbL-0300_RLatLon0.09_PT042H.grib2 2026-04-30 14:51 740K
20260430T12Z_MSC_RDPS_RelativeHumidity_IsbL-0350_RLatLon0.09_PT042H.grib2 2026-04-30 14:51 761K
20260430T12Z_MSC_RDPS_RelativeHumidity_IsbL-0400_RLatLon0.09_PT042H.grib2 2026-04-30 14:51 784K
20260430T12Z_MSC_RDPS_RelativeHumidity_IsbL-0450_RLatLon0.09_PT042H.grib2 2026-04-30 14:51 796K
20260430T12Z_MSC_RDPS_RelativeHumidity_IsbL-0500_RLatLon0.09_PT042H.grib2 2026-04-30 14:51 805K
20260430T12Z_MSC_RDPS_RelativeHumidity_IsbL-0550_RLatLon0.09_PT042H.grib2 2026-04-30 14:51 822K
20260430T12Z_MSC_RDPS_RelativeHumidity_IsbL-0600_RLatLon0.09_PT042H.grib2 2026-04-30 14:51 843K
20260430T12Z_MSC_RDPS_RelativeHumidity_IsbL-0650_RLatLon0.09_PT042H.grib2 2026-04-30 14:51 851K
20260430T12Z_MSC_RDPS_RelativeHumidity_IsbL-0700_RLatLon0.09_PT042H.grib2 2026-04-30 14:51 881K
20260430T12Z_MSC_RDPS_RelativeHumidity_IsbL-0750_RLatLon0.09_PT042H.grib2 2026-04-30 14:51 921K
20260430T12Z_MSC_RDPS_RelativeHumidity_IsbL-0800_RLatLon0.09_PT042H.grib2 2026-04-30 14:51 1.0M
20260430T12Z_MSC_RDPS_RelativeHumidity_IsbL-0850_RLatLon0.09_PT042H.grib2 2026-04-30 14:51 1.0M
20260430T12Z_MSC_RDPS_RelativeHumidity_IsbL-0875_RLatLon0.09_PT042H.grib2 2026-04-30 14:51 1.0M
20260430T12Z_MSC_RDPS_RelativeHumidity_IsbL-0900_RLatLon0.09_PT042H.grib2 2026-04-30 14:51 1.1M
20260430T12Z_MSC_RDPS_RelativeHumidity_IsbL-0925_RLatLon0.09_PT042H.grib2 2026-04-30 14:51 1.1M
20260430T12Z_MSC_RDPS_RelativeHumidity_IsbL-0950_RLatLon0.09_PT042H.grib2 2026-04-30 14:51 1.1M
20260430T12Z_MSC_RDPS_RelativeHumidity_IsbL-0970_RLatLon0.09_PT042H.grib2 2026-04-30 14:51 1.0M
20260430T12Z_MSC_RDPS_RelativeHumidity_IsbL-0985_RLatLon0.09_PT042H.grib2 2026-04-30 14:51 1.0M
20260430T12Z_MSC_RDPS_RelativeHumidity_IsbL-1000_RLatLon0.09_PT042H.grib2 2026-04-30 14:51 1.0M
20260430T12Z_MSC_RDPS_RelativeHumidity_IsbL-1015_RLatLon0.09_PT042H.grib2 2026-04-30 14:51 1.0M
20260430T12Z_MSC_RDPS_Runoff-Accum_Sfc_RLatLon0.09_PT042H.grib2 2026-04-30 14:51 52K
20260430T12Z_MSC_RDPS_SWEATIndex_Sfc_RLatLon0.09_PT042H.grib2 2026-04-30 14:51 2.4M
20260430T12Z_MSC_RDPS_SeeingIndex_EAtm_RLatLon0.09_PT042H.grib2 2026-04-30 14:51 1.0M
20260430T12Z_MSC_RDPS_SensibleHeatNetFlux_Sfc_RLatLon0.09_PT042H.grib2 2026-04-30 14:51 291K
20260430T12Z_MSC_RDPS_ShowalterIndex_IsbL-0500_RLatLon0.09_PT042H.grib2 2026-04-30 14:51 2.6M
20260430T12Z_MSC_RDPS_SkyTransparencyIndex_EAtm_RLatLon0.09_PT042H.grib2 2026-04-30 14:51 698K
20260430T12Z_MSC_RDPS_Snow-Accum12h_Sfc_RLatLon0.09_PT042H.grib2 2026-04-30 14:51 528K
20260430T12Z_MSC_RDPS_Snow-Accum1h_Sfc_RLatLon0.09_PT042H.grib2 2026-04-30 14:51 458K
20260430T12Z_MSC_RDPS_Snow-Accum24h_Sfc_RLatLon0.09_PT042H.grib2 2026-04-30 14:51 634K
20260430T12Z_MSC_RDPS_Snow-Accum3h_Sfc_RLatLon0.09_PT042H.grib2 2026-04-30 14:51 387K
20260430T12Z_MSC_RDPS_Snow-Accum6h_Sfc_RLatLon0.09_PT042H.grib2 2026-04-30 14:51 487K
20260430T12Z_MSC_RDPS_Snow-Accum_Sfc_RLatLon0.09_PT042H.grib2 2026-04-30 14:51 700K
20260430T12Z_MSC_RDPS_SnowDensity_Sfc_RLatLon0.09_PT042H.grib2 2026-04-30 14:51 173K
20260430T12Z_MSC_RDPS_SnowDepth_Sfc_RLatLon0.09_PT042H.grib2 2026-04-30 14:51 667K
20260430T12Z_MSC_RDPS_SoilTemp_DBS-0to10cm_RLatLon0.09_PT042H.grib2 2026-04-30 14:51 235K
20260430T12Z_MSC_RDPS_SoilTemp_Sfc_RLatLon0.09_PT042H.grib2 2026-04-30 14:51 267K
20260430T12Z_MSC_RDPS_SoilVolumetricIceContent_Sfc_RLatLon0.09_PT042H.grib2 2026-04-30 14:51 160K
20260430T12Z_MSC_RDPS_SoilVolumetricWaterContent_DBS-0to10cm_RLatLon0.09_PT042H.grib2 2026-04-30 14:51 271K
20260430T12Z_MSC_RDPS_SoilVolumetricWaterContent_DBS-0to1cm_RLatLon0.09_PT042H.grib2 2026-04-30 14:51 340K
20260430T12Z_MSC_RDPS_SpecificHumidity_AGL-120m_RLatLon0.09_PT042H.grib2 2026-04-30 14:51 484K
20260430T12Z_MSC_RDPS_SpecificHumidity_AGL-2m_RLatLon0.09_PT042H.grib2 2026-04-30 14:51 647K
20260430T12Z_MSC_RDPS_SpecificHumidity_AGL-40m_RLatLon0.09_PT042H.grib2 2026-04-30 14:51 489K
20260430T12Z_MSC_RDPS_SpecificHumidity_AGL-80m_RLatLon0.09_PT042H.grib2 2026-04-30 14:51 485K
20260430T12Z_MSC_RDPS_SpecificHumidity_IsbL-0001_RLatLon0.09_PT042H.grib2 2026-04-30 14:51 394K
20260430T12Z_MSC_RDPS_SpecificHumidity_IsbL-0005_RLatLon0.09_PT042H.grib2 2026-04-30 14:51 361K
20260430T12Z_MSC_RDPS_SpecificHumidity_IsbL-0010_RLatLon0.09_PT042H.grib2 2026-04-30 14:51 394K
20260430T12Z_MSC_RDPS_SpecificHumidity_IsbL-0020_RLatLon0.09_PT042H.grib2 2026-04-30 14:51 382K
20260430T12Z_MSC_RDPS_SpecificHumidity_IsbL-0030_RLatLon0.09_PT042H.grib2 2026-04-30 14:51 370K
20260430T12Z_MSC_RDPS_SpecificHumidity_IsbL-0050_RLatLon0.09_PT042H.grib2 2026-04-30 14:51 482K
20260430T12Z_MSC_RDPS_SpecificHumidity_IsbL-0100_RLatLon0.09_PT042H.grib2 2026-04-30 14:51 422K
20260430T12Z_MSC_RDPS_SpecificHumidity_IsbL-0150_RLatLon0.09_PT042H.grib2 2026-04-30 14:51 467K
20260430T12Z_MSC_RDPS_SpecificHumidity_IsbL-0175_RLatLon0.09_PT042H.grib2 2026-04-30 14:51 525K
20260430T12Z_MSC_RDPS_SpecificHumidity_IsbL-0200_RLatLon0.09_PT042H.grib2 2026-04-30 14:51 442K
20260430T12Z_MSC_RDPS_SpecificHumidity_IsbL-0225_RLatLon0.09_PT042H.grib2 2026-04-30 14:51 445K
20260430T12Z_MSC_RDPS_SpecificHumidity_IsbL-0250_RLatLon0.09_PT042H.grib2 2026-04-30 14:51 551K
20260430T12Z_MSC_RDPS_SpecificHumidity_IsbL-0275_RLatLon0.09_PT042H.grib2 2026-04-30 14:51 465K
20260430T12Z_MSC_RDPS_SpecificHumidity_IsbL-0300_RLatLon0.09_PT042H.grib2 2026-04-30 14:51 560K
20260430T12Z_MSC_RDPS_SpecificHumidity_IsbL-0350_RLatLon0.09_PT042H.grib2 2026-04-30 14:51 554K
20260430T12Z_MSC_RDPS_SpecificHumidity_IsbL-0400_RLatLon0.09_PT042H.grib2 2026-04-30 14:51 515K
20260430T12Z_MSC_RDPS_SpecificHumidity_IsbL-0450_RLatLon0.09_PT042H.grib2 2026-04-30 14:51 571K
20260430T12Z_MSC_RDPS_SpecificHumidity_IsbL-0500_RLatLon0.09_PT042H.grib2 2026-04-30 14:51 509K
20260430T12Z_MSC_RDPS_SpecificHumidity_IsbL-0550_RLatLon0.09_PT042H.grib2 2026-04-30 14:51 583K
20260430T12Z_MSC_RDPS_SpecificHumidity_IsbL-0600_RLatLon0.09_PT042H.grib2 2026-04-30 14:51 635K
20260430T12Z_MSC_RDPS_SpecificHumidity_IsbL-0650_RLatLon0.09_PT042H.grib2 2026-04-30 14:51 550K
20260430T12Z_MSC_RDPS_SpecificHumidity_IsbL-0700_RLatLon0.09_PT042H.grib2 2026-04-30 14:51 592K
20260430T12Z_MSC_RDPS_SpecificHumidity_IsbL-0750_RLatLon0.09_PT042H.grib2 2026-04-30 14:51 646K
20260430T12Z_MSC_RDPS_SpecificHumidity_IsbL-0800_RLatLon0.09_PT042H.grib2 2026-04-30 14:51 726K
20260430T12Z_MSC_RDPS_SpecificHumidity_IsbL-0850_RLatLon0.09_PT042H.grib2 2026-04-30 14:51 797K
20260430T12Z_MSC_RDPS_SpecificHumidity_IsbL-0875_RLatLon0.09_PT042H.grib2 2026-04-30 14:51 822K
20260430T12Z_MSC_RDPS_SpecificHumidity_IsbL-0900_RLatLon0.09_PT042H.grib2 2026-04-30 14:51 834K
20260430T12Z_MSC_RDPS_SpecificHumidity_IsbL-0925_RLatLon0.09_PT042H.grib2 2026-04-30 14:51 835K
20260430T12Z_MSC_RDPS_SpecificHumidity_IsbL-0950_RLatLon0.09_PT042H.grib2 2026-04-30 14:51 839K
20260430T12Z_MSC_RDPS_SpecificHumidity_IsbL-0970_RLatLon0.09_PT042H.grib2 2026-04-30 14:51 687K
20260430T12Z_MSC_RDPS_SpecificHumidity_IsbL-0985_RLatLon0.09_PT042H.grib2 2026-04-30 14:51 678K
20260430T12Z_MSC_RDPS_SpecificHumidity_IsbL-1000_RLatLon0.09_PT042H.grib2 2026-04-30 14:51 670K
20260430T12Z_MSC_RDPS_SpecificHumidity_IsbL-1015_RLatLon0.09_PT042H.grib2 2026-04-30 14:51 658K
20260430T12Z_MSC_RDPS_SpecificHumidity_Sfc_RLatLon0.09_PT042H.grib2 2026-04-30 14:51 310K
20260430T12Z_MSC_RDPS_StormRelativeHelicity_EtaL-10000_RLatLon0.09_PT042H.grib2 2026-04-30 14:51 1.1M
20260430T12Z_MSC_RDPS_StormSeverityIndex_EtaL-10000_RLatLon0.09_PT042H.grib2 2026-04-30 14:51 1.2M
20260430T12Z_MSC_RDPS_Thickness_IsbL-0850to0700_RLatLon0.09_PT042H.grib2 2026-04-30 14:51 174K
20260430T12Z_MSC_RDPS_Thickness_IsbL-1000to0500_RLatLon0.09_PT042H.grib2 2026-04-30 14:51 194K
20260430T12Z_MSC_RDPS_Thickness_IsbL-1000to0850_RLatLon0.09_PT042H.grib2 2026-04-30 14:51 259K
20260430T12Z_MSC_RDPS_TotalCloudCover_Sfc_RLatLon0.09_PT042H.grib2 2026-04-30 14:51 645K
20260430T12Z_MSC_RDPS_TotalTotalsIndex_Sfc_RLatLon0.09_PT042H.grib2 2026-04-30 14:51 2.4M
20260430T12Z_MSC_RDPS_UVIndex-ClearSky_Sfc_RLatLon0.09_PT042H.grib2 2026-04-30 14:51 124K
20260430T12Z_MSC_RDPS_UVIndex_Sfc_RLatLon0.09_PT042H.grib2 2026-04-30 14:51 202K
20260430T12Z_MSC_RDPS_UpwardLongwaveRadiationFlux_NTAtm_RLatLon0.09_PT042H.grib2 2026-04-30 14:51 473K
20260430T12Z_MSC_RDPS_UpwardShortwaveRadiationFlux_NTAtm_RLatLon0.09_PT042H.grib2 2026-04-30 14:51 136K
20260430T12Z_MSC_RDPS_VerticalVelocity_IsbL-0250_RLatLon0.09_PT042H.grib2 2026-04-30 14:51 540K
20260430T12Z_MSC_RDPS_VerticalVelocity_IsbL-0500_RLatLon0.09_PT042H.grib2 2026-04-30 14:51 533K
20260430T12Z_MSC_RDPS_VerticalVelocity_IsbL-0700_RLatLon0.09_PT042H.grib2 2026-04-30 14:51 569K
20260430T12Z_MSC_RDPS_VerticalVelocity_IsbL-0850_RLatLon0.09_PT042H.grib2 2026-04-30 14:51 705K
20260430T12Z_MSC_RDPS_VerticalWindShear_EtaL-6500_RLatLon0.09_PT042H.grib2 2026-04-30 14:51 1.2M
20260430T12Z_MSC_RDPS_WindChill_Sfc_RLatLon0.09_PT042H.grib2 2026-04-30 14:51 1.2M
20260430T12Z_MSC_RDPS_WindDir_AGL-10m_RLatLon0.09_PT042H.grib2 2026-04-30 14:51 958K
20260430T12Z_MSC_RDPS_WindDir_AGL-120m_RLatLon0.09_PT042H.grib2 2026-04-30 14:51 590K
20260430T12Z_MSC_RDPS_WindDir_AGL-40m_RLatLon0.09_PT042H.grib2 2026-04-30 14:51 626K
20260430T12Z_MSC_RDPS_WindDir_AGL-80m_RLatLon0.09_PT042H.grib2 2026-04-30 14:51 604K
20260430T12Z_MSC_RDPS_WindDir_IsbL-0001_RLatLon0.09_PT042H.grib2 2026-04-30 14:51 313K
20260430T12Z_MSC_RDPS_WindDir_IsbL-0005_RLatLon0.09_PT042H.grib2 2026-04-30 14:51 364K
20260430T12Z_MSC_RDPS_WindDir_IsbL-0010_RLatLon0.09_PT042H.grib2 2026-04-30 14:51 388K
20260430T12Z_MSC_RDPS_WindDir_IsbL-0020_RLatLon0.09_PT042H.grib2 2026-04-30 14:51 427K
20260430T12Z_MSC_RDPS_WindDir_IsbL-0030_RLatLon0.09_PT042H.grib2 2026-04-30 14:51 411K
20260430T12Z_MSC_RDPS_WindDir_IsbL-0050_RLatLon0.09_PT042H.grib2 2026-04-30 14:51 418K
20260430T12Z_MSC_RDPS_WindDir_IsbL-0100_RLatLon0.09_PT042H.grib2 2026-04-30 14:51 416K
20260430T12Z_MSC_RDPS_WindDir_IsbL-0150_RLatLon0.09_PT042H.grib2 2026-04-30 14:51 405K
20260430T12Z_MSC_RDPS_WindDir_IsbL-0175_RLatLon0.09_PT042H.grib2 2026-04-30 14:51 426K
20260430T12Z_MSC_RDPS_WindDir_IsbL-0200_RLatLon0.09_PT042H.grib2 2026-04-30 14:51 444K
20260430T12Z_MSC_RDPS_WindDir_IsbL-0225_RLatLon0.09_PT042H.grib2 2026-04-30 14:51 446K
20260430T12Z_MSC_RDPS_WindDir_IsbL-0250_RLatLon0.09_PT042H.grib2 2026-04-30 14:51 448K
20260430T12Z_MSC_RDPS_WindDir_IsbL-0275_RLatLon0.09_PT042H.grib2 2026-04-30 14:51 475K
20260430T12Z_MSC_RDPS_WindDir_IsbL-0300_RLatLon0.09_PT042H.grib2 2026-04-30 14:51 473K
20260430T12Z_MSC_RDPS_WindDir_IsbL-0350_RLatLon0.09_PT042H.grib2 2026-04-30 14:51 488K
20260430T12Z_MSC_RDPS_WindDir_IsbL-0400_RLatLon0.09_PT042H.grib2 2026-04-30 14:51 511K
20260430T12Z_MSC_RDPS_WindDir_IsbL-0450_RLatLon0.09_PT042H.grib2 2026-04-30 14:51 524K
20260430T12Z_MSC_RDPS_WindDir_IsbL-0500_RLatLon0.09_PT042H.grib2 2026-04-30 14:51 538K
20260430T12Z_MSC_RDPS_WindDir_IsbL-0550_RLatLon0.09_PT042H.grib2 2026-04-30 14:51 555K
20260430T12Z_MSC_RDPS_WindDir_IsbL-0600_RLatLon0.09_PT042H.grib2 2026-04-30 14:51 581K
20260430T12Z_MSC_RDPS_WindDir_IsbL-0650_RLatLon0.09_PT042H.grib2 2026-04-30 14:51 622K
20260430T12Z_MSC_RDPS_WindDir_IsbL-0700_RLatLon0.09_PT042H.grib2 2026-04-30 14:51 669K
20260430T12Z_MSC_RDPS_WindDir_IsbL-0750_RLatLon0.09_PT042H.grib2 2026-04-30 14:51 716K
20260430T12Z_MSC_RDPS_WindDir_IsbL-0800_RLatLon0.09_PT042H.grib2 2026-04-30 14:51 781K
20260430T12Z_MSC_RDPS_WindDir_IsbL-0850_RLatLon0.09_PT042H.grib2 2026-04-30 14:51 856K
20260430T12Z_MSC_RDPS_WindDir_IsbL-0875_RLatLon0.09_PT042H.grib2 2026-04-30 14:51 885K
20260430T12Z_MSC_RDPS_WindDir_IsbL-0900_RLatLon0.09_PT042H.grib2 2026-04-30 14:51 898K
20260430T12Z_MSC_RDPS_WindDir_IsbL-0925_RLatLon0.09_PT042H.grib2 2026-04-30 14:51 908K
20260430T12Z_MSC_RDPS_WindDir_IsbL-0950_RLatLon0.09_PT042H.grib2 2026-04-30 14:51 902K
20260430T12Z_MSC_RDPS_WindDir_IsbL-0970_RLatLon0.09_PT042H.grib2 2026-04-30 14:51 908K
20260430T12Z_MSC_RDPS_WindDir_IsbL-0985_RLatLon0.09_PT042H.grib2 2026-04-30 14:51 917K
20260430T12Z_MSC_RDPS_WindDir_IsbL-1000_RLatLon0.09_PT042H.grib2 2026-04-30 14:51 932K
20260430T12Z_MSC_RDPS_WindDir_IsbL-1015_RLatLon0.09_PT042H.grib2 2026-04-30 14:51 949K
20260430T12Z_MSC_RDPS_WindGust-Max_AGL-10m_RLatLon0.09_PT042H.grib2 2026-04-30 14:51 956K
20260430T12Z_MSC_RDPS_WindGust-Min_AGL-10m_RLatLon0.09_PT042H.grib2 2026-04-30 14:51 962K
20260430T12Z_MSC_RDPS_WindGust_AGL-10m_RLatLon0.09_PT042H.grib2 2026-04-30 14:51 1.0M
20260430T12Z_MSC_RDPS_WindSpeed_AGL-10m_RLatLon0.09_PT042H.grib2 2026-04-30 14:51 833K
20260430T12Z_MSC_RDPS_WindSpeed_AGL-120m_RLatLon0.09_PT042H.grib2 2026-04-30 14:51 538K
20260430T12Z_MSC_RDPS_WindSpeed_AGL-40m_RLatLon0.09_PT042H.grib2 2026-04-30 14:51 539K
20260430T12Z_MSC_RDPS_WindSpeed_AGL-80m_RLatLon0.09_PT042H.grib2 2026-04-30 14:51 538K
20260430T12Z_MSC_RDPS_WindSpeed_IsbL-0001_RLatLon0.09_PT042H.grib2 2026-04-30 14:51 250K
20260430T12Z_MSC_RDPS_WindSpeed_IsbL-0005_RLatLon0.09_PT042H.grib2 2026-04-30 14:51 380K
20260430T12Z_MSC_RDPS_WindSpeed_IsbL-0010_RLatLon0.09_PT042H.grib2 2026-04-30 14:51 363K
20260430T12Z_MSC_RDPS_WindSpeed_IsbL-0020_RLatLon0.09_PT042H.grib2 2026-04-30 14:51 318K
20260430T12Z_MSC_RDPS_WindSpeed_IsbL-0030_RLatLon0.09_PT042H.grib2 2026-04-30 14:51 315K
20260430T12Z_MSC_RDPS_WindSpeed_IsbL-0050_RLatLon0.09_PT042H.grib2 2026-04-30 14:51 344K
20260430T12Z_MSC_RDPS_WindSpeed_IsbL-0100_RLatLon0.09_PT042H.grib2 2026-04-30 14:51 472K
20260430T12Z_MSC_RDPS_WindSpeed_IsbL-0150_RLatLon0.09_PT042H.grib2 2026-04-30 14:51 376K
20260430T12Z_MSC_RDPS_WindSpeed_IsbL-0175_RLatLon0.09_PT042H.grib2 2026-04-30 14:51 422K
20260430T12Z_MSC_RDPS_WindSpeed_IsbL-0200_RLatLon0.09_PT042H.grib2 2026-04-30 14:51 437K
20260430T12Z_MSC_RDPS_WindSpeed_IsbL-0225_RLatLon0.09_PT042H.grib2 2026-04-30 14:51 440K
20260430T12Z_MSC_RDPS_WindSpeed_IsbL-0250_RLatLon0.09_PT042H.grib2 2026-04-30 14:51 440K
20260430T12Z_MSC_RDPS_WindSpeed_IsbL-0275_RLatLon0.09_PT042H.grib2 2026-04-30 14:51 459K
20260430T12Z_MSC_RDPS_WindSpeed_IsbL-0300_RLatLon0.09_PT042H.grib2 2026-04-30 14:51 458K
20260430T12Z_MSC_RDPS_WindSpeed_IsbL-0350_RLatLon0.09_PT042H.grib2 2026-04-30 14:51 469K
20260430T12Z_MSC_RDPS_WindSpeed_IsbL-0400_RLatLon0.09_PT042H.grib2 2026-04-30 14:51 474K
20260430T12Z_MSC_RDPS_WindSpeed_IsbL-0450_RLatLon0.09_PT042H.grib2 2026-04-30 14:51 457K
20260430T12Z_MSC_RDPS_WindSpeed_IsbL-0500_RLatLon0.09_PT042H.grib2 2026-04-30 14:51 460K
20260430T12Z_MSC_RDPS_WindSpeed_IsbL-0550_RLatLon0.09_PT042H.grib2 2026-04-30 14:51 580K
20260430T12Z_MSC_RDPS_WindSpeed_IsbL-0600_RLatLon0.09_PT042H.grib2 2026-04-30 14:51 588K
20260430T12Z_MSC_RDPS_WindSpeed_IsbL-0650_RLatLon0.09_PT042H.grib2 2026-04-30 14:51 607K
20260430T12Z_MSC_RDPS_WindSpeed_IsbL-0700_RLatLon0.09_PT042H.grib2 2026-04-30 14:51 674K
20260430T12Z_MSC_RDPS_WindSpeed_IsbL-0750_RLatLon0.09_PT042H.grib2 2026-04-30 14:51 704K
20260430T12Z_MSC_RDPS_WindSpeed_IsbL-0800_RLatLon0.09_PT042H.grib2 2026-04-30 14:51 704K
20260430T12Z_MSC_RDPS_WindSpeed_IsbL-0850_RLatLon0.09_PT042H.grib2 2026-04-30 14:51 763K
20260430T12Z_MSC_RDPS_WindSpeed_IsbL-0875_RLatLon0.09_PT042H.grib2 2026-04-30 14:51 784K
20260430T12Z_MSC_RDPS_WindSpeed_IsbL-0900_RLatLon0.09_PT042H.grib2 2026-04-30 14:51 797K
20260430T12Z_MSC_RDPS_WindSpeed_IsbL-0925_RLatLon0.09_PT042H.grib2 2026-04-30 14:51 858K
20260430T12Z_MSC_RDPS_WindSpeed_IsbL-0950_RLatLon0.09_PT042H.grib2 2026-04-30 14:51 860K
20260430T12Z_MSC_RDPS_WindSpeed_IsbL-0970_RLatLon0.09_PT042H.grib2 2026-04-30 14:51 860K
20260430T12Z_MSC_RDPS_WindSpeed_IsbL-0985_RLatLon0.09_PT042H.grib2 2026-04-30 14:51 852K
20260430T12Z_MSC_RDPS_WindSpeed_IsbL-1000_RLatLon0.09_PT042H.grib2 2026-04-30 14:51 845K
20260430T12Z_MSC_RDPS_WindSpeed_IsbL-1015_RLatLon0.09_PT042H.grib2 2026-04-30 14:51 835K
20260430T12Z_MSC_RDPS_WindU_AGL-10m_RLatLon0.09_PT042H.grib2 2026-04-30 14:51 428K
20260430T12Z_MSC_RDPS_WindU_AGL-120m_RLatLon0.09_PT042H.grib2 2026-04-30 14:51 533K
20260430T12Z_MSC_RDPS_WindU_AGL-40m_RLatLon0.09_PT042H.grib2 2026-04-30 14:51 535K
20260430T12Z_MSC_RDPS_WindU_AGL-80m_RLatLon0.09_PT042H.grib2 2026-04-30 14:51 534K
20260430T12Z_MSC_RDPS_WindU_IsbL-0001_RLatLon0.09_PT042H.grib2 2026-04-30 14:51 289K
20260430T12Z_MSC_RDPS_WindU_IsbL-0005_RLatLon0.09_PT042H.grib2 2026-04-30 14:51 282K
20260430T12Z_MSC_RDPS_WindU_IsbL-0010_RLatLon0.09_PT042H.grib2 2026-04-30 14:51 293K
20260430T12Z_MSC_RDPS_WindU_IsbL-0020_RLatLon0.09_PT042H.grib2 2026-04-30 14:51 308K
20260430T12Z_MSC_RDPS_WindU_IsbL-0030_RLatLon0.09_PT042H.grib2 2026-04-30 14:51 308K
20260430T12Z_MSC_RDPS_WindU_IsbL-0050_RLatLon0.09_PT042H.grib2 2026-04-30 14:51 339K
20260430T12Z_MSC_RDPS_WindU_IsbL-0100_RLatLon0.09_PT042H.grib2 2026-04-30 14:51 428K
20260430T12Z_MSC_RDPS_WindU_IsbL-0150_RLatLon0.09_PT042H.grib2 2026-04-30 14:51 390K
20260430T12Z_MSC_RDPS_WindU_IsbL-0175_RLatLon0.09_PT042H.grib2 2026-04-30 14:51 415K
20260430T12Z_MSC_RDPS_WindU_IsbL-0200_RLatLon0.09_PT042H.grib2 2026-04-30 14:51 332K
20260430T12Z_MSC_RDPS_WindU_IsbL-0225_RLatLon0.09_PT042H.grib2 2026-04-30 14:51 335K
20260430T12Z_MSC_RDPS_WindU_IsbL-0250_RLatLon0.09_PT042H.grib2 2026-04-30 14:51 333K
20260430T12Z_MSC_RDPS_WindU_IsbL-0275_RLatLon0.09_PT042H.grib2 2026-04-30 14:51 350K
20260430T12Z_MSC_RDPS_WindU_IsbL-0300_RLatLon0.09_PT042H.grib2 2026-04-30 14:51 347K
20260430T12Z_MSC_RDPS_WindU_IsbL-0350_RLatLon0.09_PT042H.grib2 2026-04-30 14:51 356K
20260430T12Z_MSC_RDPS_WindU_IsbL-0400_RLatLon0.09_PT042H.grib2 2026-04-30 14:51 462K
20260430T12Z_MSC_RDPS_WindU_IsbL-0450_RLatLon0.09_PT042H.grib2 2026-04-30 14:51 464K
20260430T12Z_MSC_RDPS_WindU_IsbL-0500_RLatLon0.09_PT042H.grib2 2026-04-30 14:51 467K
20260430T12Z_MSC_RDPS_WindU_IsbL-0550_RLatLon0.09_PT042H.grib2 2026-04-30 14:51 470K
20260430T12Z_MSC_RDPS_WindU_IsbL-0600_RLatLon0.09_PT042H.grib2 2026-04-30 14:51 478K
20260430T12Z_MSC_RDPS_WindU_IsbL-0650_RLatLon0.09_PT042H.grib2 2026-04-30 14:51 478K
20260430T12Z_MSC_RDPS_WindU_IsbL-0700_RLatLon0.09_PT042H.grib2 2026-04-30 14:51 500K
20260430T12Z_MSC_RDPS_WindU_IsbL-0750_RLatLon0.09_PT042H.grib2 2026-04-30 14:51 527K
20260430T12Z_MSC_RDPS_WindU_IsbL-0800_RLatLon0.09_PT042H.grib2 2026-04-30 14:51 565K
20260430T12Z_MSC_RDPS_WindU_IsbL-0850_RLatLon0.09_PT042H.grib2 2026-04-30 14:51 618K
20260430T12Z_MSC_RDPS_WindU_IsbL-0875_RLatLon0.09_PT042H.grib2 2026-04-30 14:51 636K
20260430T12Z_MSC_RDPS_WindU_IsbL-0900_RLatLon0.09_PT042H.grib2 2026-04-30 14:51 646K
20260430T12Z_MSC_RDPS_WindU_IsbL-0925_RLatLon0.09_PT042H.grib2 2026-04-30 14:51 655K
20260430T12Z_MSC_RDPS_WindU_IsbL-0950_RLatLon0.09_PT042H.grib2 2026-04-30 14:51 654K
20260430T12Z_MSC_RDPS_WindU_IsbL-0970_RLatLon0.09_PT042H.grib2 2026-04-30 14:51 654K
20260430T12Z_MSC_RDPS_WindU_IsbL-0985_RLatLon0.09_PT042H.grib2 2026-04-30 14:51 787K
20260430T12Z_MSC_RDPS_WindU_IsbL-1000_RLatLon0.09_PT042H.grib2 2026-04-30 14:51 781K
20260430T12Z_MSC_RDPS_WindU_IsbL-1015_RLatLon0.09_PT042H.grib2 2026-04-30 14:51 774K
20260430T12Z_MSC_RDPS_WindV_AGL-10m_RLatLon0.09_PT042H.grib2 2026-04-30 14:51 428K
20260430T12Z_MSC_RDPS_WindV_AGL-120m_RLatLon0.09_PT042H.grib2 2026-04-30 14:51 533K
20260430T12Z_MSC_RDPS_WindV_AGL-40m_RLatLon0.09_PT042H.grib2 2026-04-30 14:51 535K
20260430T12Z_MSC_RDPS_WindV_AGL-80m_RLatLon0.09_PT042H.grib2 2026-04-30 14:51 533K
20260430T12Z_MSC_RDPS_WindV_IsbL-0001_RLatLon0.09_PT042H.grib2 2026-04-30 14:51 242K
20260430T12Z_MSC_RDPS_WindV_IsbL-0005_RLatLon0.09_PT042H.grib2 2026-04-30 14:51 284K
20260430T12Z_MSC_RDPS_WindV_IsbL-0010_RLatLon0.09_PT042H.grib2 2026-04-30 14:51 296K
20260430T12Z_MSC_RDPS_WindV_IsbL-0020_RLatLon0.09_PT042H.grib2 2026-04-30 14:51 312K
20260430T12Z_MSC_RDPS_WindV_IsbL-0030_RLatLon0.09_PT042H.grib2 2026-04-30 14:51 310K
20260430T12Z_MSC_RDPS_WindV_IsbL-0050_RLatLon0.09_PT042H.grib2 2026-04-30 14:51 338K
20260430T12Z_MSC_RDPS_WindV_IsbL-0100_RLatLon0.09_PT042H.grib2 2026-04-30 14:51 425K
20260430T12Z_MSC_RDPS_WindV_IsbL-0150_RLatLon0.09_PT042H.grib2 2026-04-30 14:51 392K
20260430T12Z_MSC_RDPS_WindV_IsbL-0175_RLatLon0.09_PT042H.grib2 2026-04-30 14:51 415K
20260430T12Z_MSC_RDPS_WindV_IsbL-0200_RLatLon0.09_PT042H.grib2 2026-04-30 14:51 333K
20260430T12Z_MSC_RDPS_WindV_IsbL-0225_RLatLon0.09_PT042H.grib2 2026-04-30 14:51 335K
20260430T12Z_MSC_RDPS_WindV_IsbL-0250_RLatLon0.09_PT042H.grib2 2026-04-30 14:51 333K
20260430T12Z_MSC_RDPS_WindV_IsbL-0275_RLatLon0.09_PT042H.grib2 2026-04-30 14:51 348K
20260430T12Z_MSC_RDPS_WindV_IsbL-0300_RLatLon0.09_PT042H.grib2 2026-04-30 14:51 346K
20260430T12Z_MSC_RDPS_WindV_IsbL-0350_RLatLon0.09_PT042H.grib2 2026-04-30 14:51 354K
20260430T12Z_MSC_RDPS_WindV_IsbL-0400_RLatLon0.09_PT042H.grib2 2026-04-30 14:51 358K
20260430T12Z_MSC_RDPS_WindV_IsbL-0450_RLatLon0.09_PT042H.grib2 2026-04-30 14:51 461K
20260430T12Z_MSC_RDPS_WindV_IsbL-0500_RLatLon0.09_PT042H.grib2 2026-04-30 14:51 465K
20260430T12Z_MSC_RDPS_WindV_IsbL-0550_RLatLon0.09_PT042H.grib2 2026-04-30 14:51 467K
20260430T12Z_MSC_RDPS_WindV_IsbL-0600_RLatLon0.09_PT042H.grib2 2026-04-30 14:51 457K
20260430T12Z_MSC_RDPS_WindV_IsbL-0650_RLatLon0.09_PT042H.grib2 2026-04-30 14:51 474K
20260430T12Z_MSC_RDPS_WindV_IsbL-0700_RLatLon0.09_PT042H.grib2 2026-04-30 14:51 496K
20260430T12Z_MSC_RDPS_WindV_IsbL-0750_RLatLon0.09_PT042H.grib2 2026-04-30 14:51 522K
20260430T12Z_MSC_RDPS_WindV_IsbL-0800_RLatLon0.09_PT042H.grib2 2026-04-30 14:51 561K
20260430T12Z_MSC_RDPS_WindV_IsbL-0850_RLatLon0.09_PT042H.grib2 2026-04-30 14:51 614K
20260430T12Z_MSC_RDPS_WindV_IsbL-0875_RLatLon0.09_PT042H.grib2 2026-04-30 14:51 633K
20260430T12Z_MSC_RDPS_WindV_IsbL-0900_RLatLon0.09_PT042H.grib2 2026-04-30 14:51 644K
20260430T12Z_MSC_RDPS_WindV_IsbL-0925_RLatLon0.09_PT042H.grib2 2026-04-30 14:51 654K
20260430T12Z_MSC_RDPS_WindV_IsbL-0950_RLatLon0.09_PT042H.grib2 2026-04-30 14:51 652K
20260430T12Z_MSC_RDPS_WindV_IsbL-0970_RLatLon0.09_PT042H.grib2 2026-04-30 14:51 793K
20260430T12Z_MSC_RDPS_WindV_IsbL-0985_RLatLon0.09_PT042H.grib2 2026-04-30 14:51 787K
20260430T12Z_MSC_RDPS_WindV_IsbL-1000_RLatLon0.09_PT042H.grib2 2026-04-30 14:51 780K
20260430T12Z_MSC_RDPS_WindV_IsbL-1015_RLatLon0.09_PT042H.grib2 2026-04-30 14:51 818K